timestamp,surface_pressure_avg,surface_temp_avg,battery_voltage,lat,long
2017-10-20 00:00:00+00:00,364.8929,11.3,13.05,47.84626,-54.09684
2017-10-20 00:10:00+00:00,359.1279,11.3,12.97,47.84626,-54.09684
2017-10-20 00:20:00+00:00,356.3196,11.3,13.05,47.84626,-54.09684
2017-10-20 00:30:00+00:00,352.9847,11.28,13.05,47.84626,-54.09684
2017-10-20 00:40:00+00:00,348.0229,11.29,13.05,47.84626,-54.09684
2017-10-20 00:50:00+00:00,341.7013,11.28,13.05,47.84626,-54.09684
2017-10-20 01:00:00+00:00,339.1963,11.26,12.97,47.84626,-54.09684
2017-10-20 01:10:00+00:00,333.493,11.25,12.97,47.84626,-54.09684
2017-10-20 01:20:00+00:00,328.6563,11.23,12.97,47.84626,-54.09684
2017-10-20 01:30:00+00:00,323.328,11.22,12.97,47.84626,-54.09684
2017-10-20 01:40:00+00:00,315.4246,11.25,13.05,47.84626,-54.09684
2017-10-20 01:50:00+00:00,306.958,11.21,13.05,47.84626,-54.09684
2017-10-20 02:00:00+00:00,301.348,11.2,12.97,47.84626,-54.09684
2017-10-20 02:10:00+00:00,292.7314,11.21,12.89,47.84626,-54.09684
2017-10-20 02:20:00+00:00,281.1731,11.2,12.97,47.84626,-54.09684
2017-10-20 02:30:00+00:00,271.7164,11.2,12.97,47.84626,-54.09684
2017-10-20 02:40:00+00:00,267.9264,11.2,12.97,47.84626,-54.09684
2017-10-20 02:50:00+00:00,258.808,11.2,13.05,47.84626,-54.09684
2017-10-20 03:00:00+00:00,245.5914,11.2,12.97,47.84626,-54.09684
2017-10-20 03:10:00+00:00,237.2815,11.2,12.89,47.84626,-54.09684
2017-10-20 03:20:00+00:00,232.4564,11.2,12.97,47.84626,-54.09684
2017-10-20 03:30:00+00:00,223.3331,11.2,12.97,47.84626,-54.09684
2017-10-20 03:40:00+00:00,214.3548,11.2,12.97,47.84626,-54.09684
2017-10-20 03:50:00+00:00,212.4131,11.2,12.97,47.84626,-54.09684
2017-10-20 04:00:00+00:00,205.5431,11.2,12.97,47.84626,-54.09684
2017-10-20 04:10:00+00:00,193.0098,11.2,12.89,47.84626,-54.09684
2017-10-20 04:20:00+00:00,187.5115,11.2,12.97,47.84626,-54.09684
2017-10-20 04:30:00+00:00,185.7648,11.2,12.97,47.84626,-54.09684
2017-10-20 04:40:00+00:00,178.0648,11.2,12.97,47.84626,-54.09684
2017-10-20 04:50:00+00:00,172.8098,11.2,12.97,47.84626,-54.09684
2017-10-20 05:00:00+00:00,176.1548,11.2,12.97,47.84626,-54.09684
2017-10-20 05:10:00+00:00,174.1581,11.2,12.89,47.84626,-54.09684
2017-10-20 05:20:00+00:00,169.7115,11.2,12.97,47.84626,-54.09684
2017-10-20 05:30:00+00:00,172.0482,11.2,12.97,47.84626,-54.09684
2017-10-20 05:40:00+00:00,175.4832,11.2,12.97,47.84626,-54.09684
2017-10-20 05:50:00+00:00,172.7198,11.2,12.97,47.84626,-54.09684
2017-10-20 06:00:00+00:00,173.8915,11.19,12.89,47.84626,-54.09684
2017-10-20 06:10:00+00:00,182.0315,11.19,12.81,47.84626,-54.09684
2017-10-20 06:20:00+00:00,184.8581,11.19,12.97,47.84626,-54.09684
2017-10-20 06:30:00+00:00,184.6148,11.19,12.97,47.84626,-54.09684
2017-10-20 06:40:00+00:00,191.1414,11.19,12.97,47.84626,-54.09684
2017-10-20 06:50:00+00:00,197.2081,11.18,12.97,47.84626,-54.09684
2017-10-20 07:00:00+00:00,198.2264,11.18,12.89,47.84626,-54.09684
2017-10-20 07:10:00+00:00,205.2548,11.17,12.81,47.84626,-54.09684
2017-10-20 07:20:00+00:00,214.6731,11.15,12.89,47.84626,-54.09684
2017-10-20 07:30:00+00:00,218.8281,11.15,12.89,47.84626,-54.09684
2017-10-20 07:40:00+00:00,223.0231,11.13,12.97,47.84626,-54.09684
2017-10-20 07:50:00+00:00,230.0547,11.1,12.97,47.84626,-54.09684
2017-10-20 08:00:00+00:00,235.0298,11.1,12.89,47.84626,-54.09684
2017-10-20 08:10:00+00:00,238.2115,11.14,12.81,47.84626,-54.09684
2017-10-20 08:20:00+00:00,241.483,11.1,12.89,47.84626,-54.09684
2017-10-20 08:30:00+00:00,247.7614,11.1,12.89,47.84626,-54.09684
2017-10-20 08:40:00+00:00,255.9565,11.1,12.89,47.84626,-54.09684
2017-10-20 08:50:00+00:00,261.8014,11.1,12.89,47.84626,-54.09684
2017-10-20 09:00:00+00:00,266.7881,11.1,12.89,47.84626,-54.09684
2017-10-20 09:10:00+00:00,276.3914,11.1,12.81,47.84626,-54.09684
2017-10-20 09:20:00+00:00,284.9847,11.08,12.89,47.84626,-54.09684
2017-10-20 09:30:00+00:00,288.328,11.1,12.89,47.84626,-54.09684
2017-10-20 09:40:00+00:00,296.838,11.1,12.89,47.84626,-54.09684
2017-10-20 09:50:00+00:00,307.723,11.08,12.89,47.84626,-54.09684
2017-10-20 10:00:00+00:00,315.433,11.09,12.89,47.84626,-54.09684
2017-10-20 10:10:00+00:00,321.703,11.1,12.81,47.84626,-54.09684
2017-10-20 10:20:00+00:00,332.1497,11.07,12.89,47.84626,-54.09684
2017-10-20 10:30:00+00:00,342.9479,11.07,12.89,47.84626,-54.09684
2017-10-20 10:40:00+00:00,349.7463,11.09,13.05,47.84626,-54.09684
2017-10-20 10:50:00+00:00,354.3196,11.08,12.97,47.84626,-54.09684
2017-10-20 11:00:00+00:00,359.9095,11.04,12.89,47.84626,-54.09684
2017-10-20 11:10:00+00:00,367.6779,11.0,12.81,47.84626,-54.09684
2017-10-20 11:20:00+00:00,369.3779,11.01,12.89,47.84626,-54.09684
2017-10-20 11:30:00+00:00,369.8396,11.01,12.89,47.84626,-54.09684
2017-10-20 11:40:00+00:00,373.1846,11.0,12.89,47.84626,-54.09684
2017-10-20 11:50:00+00:00,373.6063,11.01,12.89,47.84626,-54.09684
2017-10-20 12:00:00+00:00,372.2996,11.01,12.89,47.84626,-54.09684
2017-10-20 12:10:00+00:00,372.4529,11.0,12.81,47.84626,-54.09684
2017-10-20 12:20:00+00:00,373.1379,11.0,12.89,47.84626,-54.09684
2017-10-20 12:30:00+00:00,370.3596,11.04,12.89,47.84626,-54.09684
2017-10-20 12:40:00+00:00,364.1746,11.06,12.97,47.84626,-54.09684
2017-10-20 12:50:00+00:00,361.3779,11.08,12.97,47.84626,-54.09684
2017-10-20 13:00:00+00:00,358.8563,11.08,12.97,47.84626,-54.09684
2017-10-20 13:10:00+00:00,354.5463,11.09,12.89,47.84626,-54.09684
2017-10-20 13:20:00+00:00,350.2346,11.1,13.05,47.84626,-54.09684
2017-10-20 13:30:00+00:00,345.9479,11.1,13.29,47.84626,-54.09684
2017-10-20 13:40:00+00:00,341.4046,11.1,13.44,47.84626,-54.09684
2017-10-20 13:50:00+00:00,336.983,11.1,13.44,47.84626,-54.09684
2017-10-20 14:00:00+00:00,329.3314,11.1,13.44,47.84626,-54.09684
2017-10-20 14:10:00+00:00,322.1413,11.1,13.37,47.84626,-54.09684
2017-10-20 14:20:00+00:00,315.8013,11.1,13.37,47.84626,-54.09684
2017-10-20 14:30:00+00:00,308.0164,11.1,13.37,47.84626,-54.09684
2017-10-20 14:40:00+00:00,293.1747,11.1,13.37,47.84626,-54.09684
2017-10-20 14:50:00+00:00,279.8981,11.15,13.53,47.84626,-54.09684
2017-10-20 15:00:00+00:00,273.5997,11.15,13.6,47.84626,-54.09684
2017-10-20 15:10:00+00:00,264.0148,11.19,13.68,47.84626,-54.09684
2017-10-20 15:20:00+00:00,249.2714,11.2,13.44,47.84626,-54.09684
2017-10-20 15:30:00+00:00,239.7631,11.2,13.44,47.84626,-54.09684
2017-10-20 15:40:00+00:00,236.3331,11.2,13.44,47.84626,-54.09684
2017-10-20 15:50:00+00:00,225.8715,11.2,13.37,47.84626,-54.09684
2017-10-20 16:00:00+00:00,214.5464,11.2,13.29,47.84626,-54.09684
2017-10-20 16:10:00+00:00,211.0431,11.24,13.21,47.84626,-54.09684
2017-10-20 16:20:00+00:00,207.7431,11.27,13.37,47.84626,-54.09684
2017-10-20 16:30:00+00:00,196.8648,11.28,14.16,47.84626,-54.09684
2017-10-20 16:40:00+00:00,189.6798,11.29,13.68,47.84626,-54.09684
2017-10-20 16:50:00+00:00,189.8231,11.3,14.0,47.84626,-54.09684
2017-10-20 17:00:00+00:00,186.6448,11.35,13.44,47.84626,-54.09684
2017-10-20 17:10:00+00:00,181.0265,11.4,13.6,47.84626,-54.09684
2017-10-20 17:20:00+00:00,178.9531,11.4,13.68,47.84626,-54.09684
2017-10-20 17:30:00+00:00,182.5182,11.44,13.53,47.84626,-54.09684
2017-10-20 17:40:00+00:00,182.8431,11.4,14.16,47.84626,-54.09684
2017-10-20 17:50:00+00:00,179.1265,11.39,13.68,47.84626,-54.09684
2017-10-20 18:00:00+00:00,181.8931,11.4,13.44,47.84626,-54.09684
2017-10-20 18:10:00+00:00,183.0881,11.4,13.53,47.84626,-54.09684
2017-10-20 18:20:00+00:00,181.5399,11.4,13.53,47.84626,-54.09684
2017-10-20 18:30:00+00:00,183.5764,11.45,13.44,47.84626,-54.09684
2017-10-20 18:40:00+00:00,186.2464,11.46,13.29,47.84626,-54.09684
2017-10-20 18:50:00+00:00,187.7715,11.4,13.29,47.84626,-54.09684
2017-10-20 19:00:00+00:00,192.0681,11.4,13.21,47.84626,-54.09684
2017-10-20 19:10:00+00:00,199.9498,11.43,13.13,47.84626,-54.09684
2017-10-20 19:20:00+00:00,204.8381,11.4,13.13,47.84626,-54.09684
2017-10-20 19:30:00+00:00,209.7898,11.4,13.13,47.84626,-54.09684
2017-10-20 19:40:00+00:00,218.6414,11.4,13.13,47.84626,-54.09684
2017-10-20 19:50:00+00:00,225.4481,11.4,13.21,47.84626,-54.09684
2017-10-20 20:00:00+00:00,227.6815,11.4,13.13,47.84626,-54.09684
2017-10-20 20:10:00+00:00,232.8814,11.3,13.05,47.84626,-54.09684
2017-10-20 20:20:00+00:00,238.4981,11.3,13.13,47.84626,-54.09684
2017-10-20 20:30:00+00:00,240.8415,11.3,13.05,47.84626,-54.09684
2017-10-20 20:40:00+00:00,243.6464,11.26,13.13,47.84626,-54.09684
2017-10-20 20:50:00+00:00,249.8214,11.2,13.13,47.84626,-54.09684
2017-10-20 21:00:00+00:00,258.2714,11.2,13.05,47.84626,-54.09684
2017-10-20 21:10:00+00:00,262.7764,11.2,12.97,47.84626,-54.09684
2017-10-20 21:20:00+00:00,264.7364,11.2,13.05,47.84626,-54.09684
2017-10-20 21:30:00+00:00,268.9914,11.19,13.05,47.84626,-54.09684
2017-10-20 21:40:00+00:00,277.7531,11.19,13.05,47.84626,-54.09684
2017-10-20 21:50:00+00:00,286.0014,11.18,13.05,47.84626,-54.09684
2017-10-20 22:00:00+00:00,291.5831,11.18,13.05,47.84626,-54.09684
2017-10-20 22:10:00+00:00,297.5647,11.18,12.97,47.84626,-54.09684
2017-10-20 22:20:00+00:00,306.888,11.17,13.05,47.84626,-54.09684
2017-10-20 22:30:00+00:00,317.483,11.18,13.05,47.84626,-54.09684
2017-10-20 22:40:00+00:00,323.6146,11.19,13.05,47.84626,-54.09684
2017-10-20 22:50:00+00:00,330.7096,11.19,13.05,47.84626,-54.09684
2017-10-20 23:00:00+00:00,342.1763,11.19,12.97,47.84626,-54.09684
2017-10-20 23:10:00+00:00,348.3779,11.2,12.97,47.84626,-54.09684
2017-10-20 23:20:00+00:00,352.9529,11.2,13.05,47.84626,-54.09684
2017-10-20 23:30:00+00:00,357.003,11.2,13.05,47.84626,-54.09684
2017-10-20 23:40:00+00:00,363.6279,11.2,13.05,47.84626,-54.09684
2017-10-20 23:50:00+00:00,364.2147,11.2,13.05,47.84626,-54.09684
